Wind_Speed
65 65 66 67 67 68 68 68 68 67 67 67 67 67 68 68 68 68 68 68 68 68 68 69 69 70 70 70 70 70 70 70 71 70 70 70 70 70 69 70 70 70 69 70 70 70 71 70 70 71 71 72 72 72 72 71 71 69 70 72 75 79 83 85 84 84 84 84 84 83 81 80 79 79 78 77 76 75 74 73 73 74 74 75 76 76 75 74
64 65 65 66 66 66 66 66 66 66 66 67 67 67 67 67 67 67 68 68 68 68 69 69 70 70 71 71 71 71 71 71 72 72 71 71 71 71 70 71 71 70 69 69 69 69 69 69 69 69 70 70 70 70 70 69 68 67 67 68 72 77 80 81 81 81 81 81 81 80 78 77 76 76 75 75 75 73 73 72 74 75 75 77 77 75 74 73
63 63 64 64 64 64 65 65 65 66 66 66 67 67 67 67 67 67 68 68 69 69 70 70 71 71 71 72 72 72 72 73 73 72 72 72 72 72 71 71 71 70 69 69 68 68 67 67 68 68 68 68 69 68 68 68 66 65 65 65 71 76 77 78 77 77 77 78 77 76 74 73 72 71 71 71 70 69 70 71 73 73 74 76 75 74 73 71
62 62 62 63 63 63 64 64 65 65 65 66 66 66 67 67 67 68 68 69 69 70 70 70 71 72 72 73 73 73 74 74 74 73 73 73 73 72 71 70 70 69 69 68 67 66 66 66 66 67 67 67 67 66 67 67 66 64 63 65 71 74 74 75 74 74 74 74 73 71 70 68 67 67 67 66 65 66 66 68 70 70 72 73 71 70 70 68
61 61 62 62 63 63 64 64 64 65 65 65 66 66 67 67 68 68 68 69 69 69 70 70 71 72 73 73 74 74 75 75 75 74 74 73 72 71 69 68 67 67 67 66 66 65 65 65 65 65 66 66 66 65 67 67 64 63 62 65 72 73 72 73 72 71 71 71 70 68 66 64 63 64 63 62 62 63 64 65 66 67 70 70 67 66 65 64
60 61 62 62 63 63 64 64 65 65 65 66 66 66 67 67 67 68 68 68 68 69 70 70 72 73 74 74 75 75 76 76 76 75 74 73 71 69 67 65 65 65 65 65 64 64 64 64 64 65 65 66 65 66 67 66 63 62 63 66 71 72 73 72 70 70 69 68 68 66 64 62 61 62 61 60 61 62 63 64 64 66 67 66 64 61 61 60
60 60 61 62 62 63 63 64 65 65 65 66 66 66 67 67 67 68 68 69 69 70 71 72 73 74 75 76 76 77 77 76 75 75 73 71 69 67 65 64 63 64 64 64 64 64 64 64 64 65 65 65 65 66 67 65 62 62 64 67 72 73 73 72 70 69 68 68 67 65 63 61 60 60 59 59 61 62 64 64 64 66 66 64 61 59 57 56
59 60 61 61 62 62 63 64 64 65 65 65 66 66 67 67 68 69 70 70 71 72 73 74 75 75 76 77 77 76 75 73 73 72 70 69 67 67 66 66 65 64 64 65 64 64 64 64 64 64 65 65 65 66 67 65 63 64 66 69 72 73 74 73 70 69 68 68 67 64 62 61 60 59 59 60 63 64 64 64 65 66 64 61 59 56 55 53
59 60 60 61 61 62 63 64 64 65 66 66 67 67 68 69 69 70 71 71 72 73 74 74 74 74 74 74 73 73 71 70 70 69 69 68 68 68 68 68 67 66 66 65 65 65 64 64 63 63 64 64 64 66 66 64 64 66 69 71 72 74 75 74 70 69 69 68 67 65 63 62 60 60 61 63 65 65 65 66 67 66 63 60 58 56 53 50
59 59 60 61 61 62 63 64 65 66 67 67 68 69 70 70 71 71 72 72 72 72 72 72 71 71 71 71 71 70 69 69 69 69 70 70 70 70 69 69 68 68 67 66 65 65 64 63 62 62 63 63 63 65 64 63 64 66 69 70 71 74 76 75 72 72 72 70 68 67 65 64 62 62 64 66 66 67 67 67 68 65 62 60 58 56 53 50
59 60 60 61 61 62 63 64 65 66 67 68 69 69 70 71 71 71 71 70 70 69 68 69 69 69 69 70 70 69 69 70 71 71 72 72 71 69 68 68 68 67 66 66 65 63 62 61 61 61 61 61 61 62 62 62 63 64 66 68 70 73 75 75 74 74 73 70 70 69 68 66 64 65 67 68 68 69 69 68 67 65 63 61 59 57 54 52
58 58 59 60 61 62 62 63 64 65 66 67 68 68 69 69 69 68 67 66 66 66 65 66 67 69 69 70 69 69 70 71 72 72 73 72 71 69 68 68 67 66 65 64 63 61 60 59 59 59 59 58 59 60 60 60 61 62 63 65 68 71 72 73 74 74 73 71 72 70 69 68 66 68 69 70 72 72 71 69 68 65 64 62 59 57 56 54
55 55 56 57 58 58 59 61 62 63 63 64 65 65 65 65 64 63 62 62 62 62 63 64 66 68 70 71 70 70 72 72 72 72 72 72 71 70 70 68 66 65 64 63 61 60 58 57 57 57 56 57 57 58 57 58 59 60 60 62 65 67 69 71 73 73 72 71 72 71 69 68 68 70 71 72 74 74 72 71 69 67 65 62 59 58 57 57
51 52 52 53 54 56 57 58 60 61 61 62 62 61 61 61 61 60 60 60 60 61 61 62 65 66 69 71 69 71 74 74 73 74 73 73 73 72 70 67 66 65 64 62 61 60 58 56 56 56 56 56 56 56 56 56 56 58 58 60 63 65 67 71 72 71 70 70 71 69 67 67 68 70 71 72 73 74 72 71 69 67 65 61 59 59 59 59
49 50 51 51 53 54 55 56 57 58 59 60 60 60 60 61 61 60 61 62 62 63 63 64 65 66 68 69 67 69 72 73 73 73 73 73 73 71 69 67 66 65 64 62 61 60 58 56 56 57 56 56 56 56 56 55 55 57 57 59 62 64 67 71 70 70 70 69 69 67 65 67 68 70 73 73 73 73 72 70 68 65 62 60 58 59 60 59
48 49 50 50 51 52 53 54 55 55 56 57 57 58 59 60 61 61 62 63 64 65 66 67 68 68 69 70 68 68 70 70 71 71 72 72 71 69 67 66 66 65 64 63 62 60 58 57 57 57 56 55 56 55 56 55 55 56 57 58 61 63 67 69 69 69 69 68 67 65 64 66 67 70 74 72 71 72 70 69 66 63 59 58 58 59 60 60
49 49 50 51 51 52 53 53 54 54 55 55 56 56 57 58 59 60 61 62 63 65 67 69 70 71 72 72 71 71 71 70 71 72 72 72 70 69 68 67 66 65 64 62 61 60 59 58 57 56 55 55 55 55 54 54 55 57 57 58 60 62 65 67 68 69 68 66 64 62 61 63 65 69 72 69 67 68 67 67 64 60 58 57 58 59 59 60
51 51 51 51 52 53 53 54 54 55 55 56 56 57 57 57 58 59 60 61 62 64 66 67 69 70 71 72 72 71 70 70 71 72 72 72 71 69 68 67 66 65 64 62 61 60 59 57 56 55 55 55 55 54 53 54 56 56 56 56 58 59 61 64 66 66 64 62 60 58 57 58 60 65 69 67 65 66 65 64 61 58 57 57 58 59 59 59
53 53 53 53 54 54 54 54 55 55 55 55 56 56 56 57 59 61 61 62 64 66 67 67 68 69 69 70 69 67 66 67 68 69 70 71 71 71 69 67 65 65 64 63 61 60 58 56 55 55 56 55 53 52 52 53 55 53 52 53 55 56 57 60 63 61 60 59 57 56 54 53 55 62 67 66 65 64 62 59 58 56 56 57 58 58 58 58
53 53 53 54 55 55 55 56 56 57 57 56 56 56 56 57 58 60 62 63 66 68 69 69 70 70 71 71 69 67 67 67 67 67 68 69 70 70 69 67 65 64 64 63 61 59 56 55 56 57 56 54 50 49 50 51 52 50 49 51 52 53 54 57 59 58 57 56 55 56 53 52 56 62 65 64 62 60 57 54 54 54 54 56 58 59 59 59
54 54 54 55 55 55 56 56 57 58 58 58 58 58 58 58 58 58 60 61 65 67 67 68 69 70 73 72 69 68 68 68 69 68 68 67 67 67 67 66 64 64 64 62 59 57 55 55 57 56 53 50 47 46 47 49 50 48 48 49 50 50 51 55 56 56 55 52 53 54 51 51 57 62 63 61 58 55 53 51 50 50 51 54 57 59 59 58
55 55 55 55 55 55 56 56 56 56 56 57 58 58 58 58 58 57 57 58 62 65 64 65 65 66 70 69 67 66 66 67 68 67 66 65 64 64 64 63 63 63 62 60 56 54 54 55 55 52 49 47 45 44 45 47 47 46 46 47 48 49 51 53 55 55 53 49 51 51 49 52 57 59 60 57 54 52 50 47 46 47 50 53 56 58 57 55
56 56 56 56 56 56 57 57 57 56 56 57 58 59 58 57 56 55 55 54 58 61 60 60 60 61 65 66 62 60 62 64 65 63 62 61 61 60 60 61 60 60 59 57 54 53 53 53 52 48 46 46 45 44 44 45 46 44 45 45 47 49 50 54 55 54 50 48 50 50 49 53 56 57 57 53 50 49 47 44 43 45 48 51 54 54 53 51
57 57 57 57 57 57 58 58 58 57 57 57 58 59 58 56 54 53 52 50 53 58 57 56 56 57 62 62 56 54 58 61 61 60 59 58 58 57 57 58 58 58 57 54 52 51 51 50 49 46 46 45 44 43 43 44 45 44 44 44 47 49 51 55 54 51 49 48 50 50 50 53 54 54 52 49 47 45 44 43 43 45 48 50 51 51 50 49
58 58 58 58 58 58 58 58 59 59 58 58 59 58 57 55 52 50 49 47 52 57 55 52 52 55 59 57 52 52 56 59 59 58 56 55 55 55 55 56 56 56 55 52 50 50 49 48 47 46 44 43 43 43 43 43 44 43 43 44 48 51 52 54 51 47 47 48 49 50 50 52 51 50 48 46 44 43 43 44 45 46 48 49 50 50 49 48
59 59 59 59 59 58 58 59 60 60 59 59 59 58 55 53 50 48 47 47 51 54 52 49 49 52 54 52 50 50 52 56 57 54 53 53 53 53 53 54 55 55 53 49 48 48 48 46 46 45 43 42 42 42 42 43 42 43 44 46 50 51 51 52 48 45 46 46 49 48 48 50 49 46 45 44 44 44 44 45 46 47 48 50 50 49 49 49
60 60 60 60 59 59 59 60 61 60 60 60 59 58 55 52 49 48 46 47 50 51 50 48 47 49 50 49 48 48 50 55 54 51 52 53 52 51 51 51 53 52 50 46 47 49 46 45 45 43 41 40 41 42 42 42 42 44 46 47 49 49 48 49 45 44 45 45 47 47 47 49 47 44 42 42 43 43 44 45 47 48 49 50 50 50 50 49
61 60 60 61 60 60 60 61 61 61 60 60 59 58 55 51 49 47 46 46 49 49 47 47 47 47 47 47 47 49 50 51 51 51 52 51 50 48 49 50 51 49 46 44 47 47 43 43 43 41 39 40 41 42 41 41 43 46 46 46 46 45 45 45 43 43 44 44 46 46 45 46 45 42 41 41 42 43 44 45 47 48 48 48 49 49 48 48
62 61 61 61 61 60 61 62 61 60 60 60 59 58 53 49 48 46 45 47 49 47 45 46 46 44 45 46 47 48 48 48 49 50 50 49 48 47 47 49 48 45 42 43 45 44 42 42 41 38 39 41 41 41 40 40 44 45 44 42 42 42 44 43 42 43 42 42 45 44 43 43 41 40 41 42 43 43 44 45 46 46 46 46 47 47 47 47
61 60 60 61 61 61 61 61 60 59 59 60 59 56 51 49 48 46 46 49 49 46 44 45 44 42 43 45 46 46 46 46 46 47 48 47 46 45 46 47 45 42 41 42 44 43 42 40 38 39 41 41 40 39 39 40 43 42 40 40 40 41 43 42 42 42 40 40 42 42 41 41 40 40 42 43 43 43 44 44 44 44 45 46 47 47 47 46
58 59 60 61 62 61 61 61 60 59 60 60 58 54 50 48 48 46 48 50 47 44 43 42 41 41 42 44 44 43 43 42 42 43 44 44 43 44 44 44 44 41 40 41 44 43 41 39 39 40 40 39 39 38 38 39 41 40 38 39 39 40 42 41 41 39 37 38 40 40 40 40 41 42 42 42 41 40 42 43 43 44 45 47 47 46 45 45
57 59 61 62 62 62 61 61 60 59 60 60 57 52 48 48 48 48 50 48 45 43 41 39 39 40 42 43 43 42 41 40 39 39 41 41 41 42 42 42 42 40 39 42 44 41 38 39 39 39 38 38 38 37 37 38 39 39 38 39 39 39 40 39 38 37 36 38 39 39 40 41 42 42 41 41 38 36 39 41 43 44 45 46 45 43 43 43
60 61 62 62 62 61 61 61 59 58 59 59 55 50 47 48 49 50 49 47 44 41 38 38 39 40 42 44 45 44 42 40 39 39 40 40 39 40 41 40 39 38 39 42 43 39 38 38 38 37 37 38 38 37 36 36 37 37 38 38 38 38 38 38 37 36 37 39 39 39 39 41 42 40 39 38 37 36 37 38 40 42 44 44 42 40 41 42
62 62 62 61 60 59 59 60 59 58 59 57 52 48 47 49 50 49 47 44 42 38 37 38 39 40 41 43 46 45 43 42 40 39 40 40 39 39 39 39 39 39 40 41 41 39 38 38 37 38 39 39 38 37 35 35 35 35 36 36 36 37 38 38 37 37 38 39 39 38 39 40 40 38 38 37 37 37 36 36 38 40 42 42 40 39 41 43
60 60 59 59 58 58 58 59 59 58 58 55 50 48 48 49 48 47 45 43 40 37 37 39 40 40 40 41 44 45 43 42 40 39 40 40 40 40 39 39 39 39 39 39 39 39 38 38 38 39 39 38 37 35 33 33 33 34 34 35 35 37 38 39 38 38 39 39 39 38 38 38 38 36 35 36 36 36 35 36 37 39 40 39 39 40 41 43
57 57 57 57 57 58 59 59 58 56 55 53 50 49 49 48 46 45 44 41 38 37 38 39 40 40 38 39 41 43 44 43 41 40 40 41 42 41 39 38 37 38 38 38 38 38 38 38 38 38 37 37 35 32 31 31 31 32 33 35 36 37 37 37 37 38 39 39 38 37 37 37 36 34 32 32 32 34 34 35 35 36 36 37 38 39 40 41
55 55 55 56 57 58 58 57 56 54 53 52 51 50 48 46 45 44 43 40 37 38 40 40 40 39 37 37 38 40 43 44 44 43 41 42 43 42 39 37 37 38 38 38 38 37 37 37 36 36 37 35 32 30 29 30 29 30 33 35 35 35 34 34 35 36 37 37 36 35 35 35 34 33 31 30 30 31 32 33 32 32 31 32 34 36 37 37
54 55 56 57 57 56 56 55 55 54 53 52 51 49 46 45 44 43 42 40 38 39 41 41 40 38 37 36 36 37 41 44 43 42 42 42 44 44 42 38 37 38 38 38 38 37 37 37 36 36 36 33 31 30 29 28 28 30 32 32 33 33 33 34 35 35 35 35 34 34 34 33 33 33 32 31 30 30 31 31 30 28 27 27 29 31 33 33
55 55 55 55 54 54 55 55 56 55 54 51 49 46 45 44 43 43 42 41 40 41 42 43 41 39 38 36 35 36 38 39 39 40 41 41 43 46 43 37 37 39 38 38 38 37 37 38 37 37 36 34 32 30 29 28 29 30 30 30 32 33 33 34 35 35 36 36 35 34 34 33 33 33 34 32 31 31 32 31 30 28 27 27 27 28 29 28
54 53 53 53 53 54 55 55 55 54 51 47 44 43 43 43 42 43 43 42 41 41 43 44 41 39 38 36 35 35 36 36 36 37 38 38 40 42 40 36 37 38 39 39 37 36 37 38 38 37 36 35 33 31 30 29 30 30 30 31 33 33 34 35 35 36 37 36 36 35 34 34 34 35 34 33 32 32 32 31 30 28 27 27 23 21 23 25
51 51 52 53 54 54 54 53 51 48 45 42 41 41 42 43 43 43 43 43 43 43 44 44 42 40 38 36 36 36 36 36 36 36 36 35 36 38 38 36 37 38 39 38 37 37 37 39 39 38 36 34 32 31 30 30 30 30 30 32 33 33 34 35 36 37 37 37 37 36 35 35 35 35 35 34 33 32 31 31 29 25 23 19 14 16 22 25
50 51 51 51 51 51 49 47 45 42 40 39 40 40 42 43 44 43 44 45 44 44 45 44 42 39 38 37 37 36 37 38 36 36 36 35 34 36 36 36 37 38 38 37 37 38 37 38 40 38 35 34 33 32 31 30 30 31 31 32 33 33 33 34 35 37 38 38 38 37 36 36 36 36 36 35 34 32 32 32 30 26 23 19 18 24 30 31
45 46 46 46 45 44 42 40 39 39 38 39 40 40 42 44 44 44 44 45 45 44 44 44 41 39 39 39 39 38 38 39 37 36 37 35 35 36 35 35 37 37 37 36 36 36 36 38 40 38 35 34 34 33 32 31 30 31 31 31 32 33 33 33 35 37 37 38 38 37 37 37 38 38 38 37 35 34 34 34 33 30 27 24 24 30 36 38
37 38 38 38 38 37 36 36 36 37 37 38 40 41 43 44 45 45 44 45 45 44 43 43 42 41 41 42 41 40 40 39 38 38 38 37 37 36 35 35 36 36 36 36 36 36 35 37 39 38 35 34 34 33 33 32 31 30 30 30 32 32 33 34 36 37 37 37 38 37 37 38 39 39 39 38 36 35 36 36 36 35 33 30 30 34 38 40
31 31 32 33 33 33 34 35 36 37 38 39 39 41 42 44 46 46 45 44 45 45 44 44 44 44 44 44 44 43 42 41 41 41 41 40 39 38 38 37 36 37 37 38 38 37 36 37 38 37 34 33 34 34 34 33 31 30 30 30 31 32 33 35 37 38 38 39 38 38 38 39 40 41 41 40 39 38 39 38 36 37 37 37 39 40 41 41
27 28 29 30 31 32 33 35 36 37 38 39 40 42 43 44 45 46 45 44 45 46 45 45 46 46 46 47 47 45 44 44 44 44 44 42 41 41 40 39 38 39 40 40 40 39 38 37 37 37 35 33 33 34 34 33 32 31 30 31 31 32 33 34 36 37 39 40 40 39 40 41 41 42 42 42 41 40 41 40 37 37 40 43 44 45 44 43
25 27 28 29 30 32 33 35 35 37 38 38 40 42 44 45 45 45 45 44 45 46 46 47 48 49 49 50 50 48 47 48 48 47 46 45 44 43 43 41 40 41 42 42 41 40 39 38 36 37 36 34 34 34 34 34 32 32 31 31 32 33 33 33 34 36 38 39 40 40 41 41 42 43 43 43 42 42 43 43 41 42 46 48 49 48 47 46
25 27 28 28 30 31 33 34 35 36 36 37 39 40 42 43 43 43 43 43 43 44 46 48 50 51 52 52 52 51 50 51 50 49 49 49 47 46 45 43 42 43 44 43 42 41 41 39 38 38 37 36 36 35 35 34 33 33 33 33 33 33 34 34 34 35 37 38 39 41 43 43 43 43 43 43 43 43 44 46 45 45 48 50 50 49 47 47
25 27 28 28 29 31 32 33 33 34 35 35 36 37 39 39 39 39 40 39 38 40 43 46 49 52 54 54 54 53 51 52 52 51 51 51 50 48 47 46 44 44 45 45 44 43 42 41 40 39 38 38 38 36 35 35 35 35 35 35 34 34 35 36 35 36 37 39 40 42 44 45 45 45 44 43 43 43 45 49 49 47 48 50 51 49 48 47
24 26 26 27 28 29 30 31 31 31 32 32 33 34 36 36 35 35 35 36 36 36 39 44 47 50 52 54 55 54 52 52 52 52 52 52 52 50 49 48 48 48 47 47 46 45 44 43 42 41 40 40 40 39 37 37 37 37 37 37 36 36 37 37 37 37 38 40 42 44 45 45 46 46 46 46 46 46 47 51 53 51 50 51 52 50 50 50
23 24 24 25 26 26 27 28 28 28 28 28 29 30 32 32 32 32 31 33 34 35 37 41 43 45 47 49 51 51 51 51 51 52 52 53 54 52 50 51 52 51 50 48 47 47 46 46 46 44 42 41 41 41 40 40 40 40 39 38 38 38 38 38 39 40 40 40 42 44 45 46 47 47 47 47 48 48 49 51 55 54 53 53 54 52 52 53
21 22 23 23 23 24 24 24 24 24 24 24 24 25 27 27 27 28 28 30 32 33 34 37 40 42 43 44 46 47 48 50 51 53 54 55 54 53 52 52 53 53 52 51 51 50 49 49 49 47 45 44 43 43 43 43 43 43 42 40 40 40 40 40 41 41 42 42 42 43 45 47 48 48 49 48 49 49 49 52 55 55 54 55 55 54 54 55
Wind_Direction
249 250 250 251 252 252 253 254 255 255 256 256 256 256 256 257 257 257 258 258 259 260 260 261 262 263 263 264 264 264 265 265 266 266 267 267 267 268 268 268 268 267 266 266 265 264 263 262 261 260 259 258 258 258 258 257 257 257 256 256 256 256 256 257 257 257 258 258 259 259 259 259 260 261 261 262 262 262 262 262 262 262 262 262 261 261 262 263
250 251 251 252 252 253 253 254 255 255 255 256 256 256 256 257 257 258 258 259 259 260 260 261 262 262 263 263 264 265 265 266 267 267 268 268 268 269 269 268 268 267 266 265 264 264 263 262 261 260 260 259 258 258 258 257 257 256 256 256 256 256 256 256 257 257 258 258 259 259 260 260 260 261 261 262 262 262 262 262 261 261 261 261 261 262 263 264
252 252 252 252 253 253 253 254 254 255 255 255 256 256 256 257 257 258 258 259 259 260 261 261 261 262 263 263 264 265 266 267 267 268 268 269 269 269 269 269 268 267 266 265 264 263 262 262 261 260 259 259 258 258 258 257 256 256 256 256 257 256 256 257 257 257 258 258 259 259 260 260 260 261 261 262 262 262 262 261 261 261 260 261 261 262 263 264
252 252 252 252 252 253 253 254 254 254 255 255 255 256 256 257 258 258 259 259 260 261 261 261 262 262 263 264 265 266 267 267 268 268 269 269 270 270 269 268 267 266 265 264 264 263 262 261 260 260 259 259 258 257 257 257 256 256 256 257 257 257 257 257 257 257 258 258 259 259 260 260 260 261 261 261 261 261 261 261 261 261 261 261 261 262 264 264
252 252 252 252 252 253 253 254 254 254 255 255 256 256 257 257 258 259 260 260 261 261 261 262 262 263 264 265 266 266 267 267 268 268 269 269 269 268 268 267 267 266 265 265 264 263 262 261 260 260 259 258 258 257 257 256 256 256 256 257 258 258 258 258 257 258 258 258 259 259 259 259 260 260 260 260 260 260 259 259 260 260 260 261 262 263 264 265
252 252 252 252 253 253 253 254 254 255 255 256 256 257 257 258 259 259 260 261 261 262 262 263 263 264 265 266 266 267 267 267 268 268 268 268 267 267 266 266 266 265 265 264 264 263 262 261 260 260 259 259 258 257 257 256 256 256 256 257 258 258 258 258 258 258 258 259 259 259 259 259 259 259 259 259 259 259 258 258 259 259 259 260 261 262 264 265
251 251 251 252 252 252 253 254 254 255 255 256 257 257 258 259 259 260 261 262 262 263 263 264 265 265 266 266 267 267 267 267 267 267 267 267 267 266 267 267 267 266 265 264 263 263 262 261 260 260 260 259 259 258 258 257 256 256 256 256 258 258 258 258 258 258 258 259 259 259 258 258 258 258 259 259 259 258 258 258 258 258 258 260 261 261 263 264
251 251 251 251 251 252 252 253 254 255 255 256 257 258 259 259 260 261 262 263 264 264 265 265 265 266 266 267 267 267 267 267 267 267 267 266 266 267 268 270 269 267 266 264 263 263 262 262 261 261 261 260 260 259 258 257 257 256 256 256 257 258 259 259 258 258 259 259 259 259 259 258 258 258 259 258 258 257 257 257 257 257 258 259 260 260 261 263
252 253 253 253 253 253 254 254 255 256 257 258 258 259 260 261 262 263 264 264 265 266 266 266 266 267 267 267 267 267 266 265 265 265 265 265 265 267 269 270 270 268 267 266 264 264 263 263 263 263 262 262 261 260 259 258 257 256 256 256 258 259 259 259 258 258 258 258 258 258 258 257 257 257 257 257 257 257 257 256 256 257 258 259 259 259 259 261
255 255 255 255 256 256 257 257 258 259 259 260 261 261 262 263 264 264 265 265 265 265 265 266 266 265 265 265 265 265 265 264 263 263 263 264 265 267 269 270 270 269 268 267 266 265 265 264 264 264 264 263 262 261 260 259 257 256 257 257 258 259 259 259 258 257 257 257 257 257 256 256 255 255 255 255 256 256 255 255 256 257 258 258 258 258 258 257
257 257 257 258 258 259 259 260 261 261 262 262 262 263 263 264 264 264 264 264 264 264 263 263 263 263 263 263 263 263 263 263 262 263 263 265 266 268 269 270 270 270 269 268 268 267 266 266 265 265 264 264 263 262 261 259 257 256 256 257 257 257 258 258 257 256 256 256 256 255 255 255 254 254 253 253 254 253 253 254 255 256 256 256 256 256 256 254
259 259 260 260 261 261 262 262 262 263 263 263 263 263 263 263 263 263 263 263 263 262 262 261 261 261 261 261 261 262 261 262 262 263 264 266 267 269 270 270 270 270 269 269 269 269 268 267 266 266 265 264 263 262 260 259 257 256 255 256 256 256 257 257 256 255 255 254 254 254 253 254 253 252 252 252 252 252 253 253 254 254 254 255 255 255 255 252
259 260 261 261 262 262 263 263 263 263 263 263 263 263 263 263 262 262 262 262 262 262 262 261 260 260 260 260 260 260 260 261 262 263 265 267 269 270 270 270 270 270 270 270 270 269 268 268 267 267 266 265 263 262 261 259 258 256 255 255 255 255 256 256 254 254 253 253 252 252 252 252 251 251 251 251 252 253 254 254 253 254 254 254 255 254 253 251
259 260 261 261 262 262 262 263 263 263 263 263 263 262 262 261 260 260 260 261 261 261 261 261 261 261 260 260 260 260 260 261 262 264 266 267 268 269 270 270 270 270 270 270 269 269 269 268 268 267 266 265 264 262 261 259 258 257 255 254 254 254 254 254 253 253 252 251 251 251 250 250 250 250 250 250 252 253 253 254 254 254 254 255 254 253 252 251
259 260 261 261 262 262 262 263 263 263 263 263 263 262 261 260 260 259 258 258 258 259 260 260 260 260 261 261 261 261 262 263 264 265 266 267 267 268 269 269 269 269 269 269 269 269 269 269 268 267 266 265 264 263 261 259 257 256 254 253 253 252 252 253 252 252 251 250 250 250 249 249 249 249 249 249 251 252 252 253 253 253 254 254 253 252 252 250
259 260 261 261 262 262 262 262 262 262 263 263 263 263 262 262 261 260 259 259 259 259 259 259 260 260 260 261 261 261 262 263 264 265 266 266 267 267 268 268 268 268 268 269 269 270 269 269 268 268 267 266 265 263 261 260 257 255 253 251 251 250 251 252 252 251 251 250 249 249 248 248 249 248 249 251 252 252 252 252 252 252 252 252 251 250 250 249
259 260 261 261 262 262 262 262 262 262 262 263 263 263 263 263 263 262 261 261 260 260 260 260 260 260 260 261 261 261 262 263 264 265 265 266 266 266 266 266 266 267 268 268 269 269 269 269 269 269 268 267 265 263 261 259 256 253 251 250 250 250 251 252 252 251 251 251 250 250 249 249 250 250 252 252 252 252 251 251 250 250 250 250 249 248 248 248
259 260 261 261 262 262 263 263 263 263 263 264 264 264 264 264 264 263 262 262 261 261 260 260 260 260 260 261 261 261 262 263 263 263 264 264 265 265 265 265 266 266 267 268 268 268 269 269 270 269 268 265 263 261 259 257 255 253 252 251 251 251 252 253 252 252 252 253 252 251 250 250 250 251 251 250 249 249 249 249 250 250 250 249 248 247 246 246
260 261 262 262 263 264 264 265 265 265 266 266 266 267 267 266 266 264 263 262 261 260 259 260 260 260 260 260 261 261 261 262 262 263 263 263 262 263 263 264 264 265 266 266 267 267 269 269 269 267 265 263 263 262 260 258 256 255 254 252 251 251 251 251 252 251 251 251 250 248 245 244 245 247 248 248 247 247 248 249 250 249 248 247 246 246 245 244
261 262 263 264 265 266 267 267 267 267 268 268 269 270 270 269 268 266 265 263 262 261 260 260 260 261 261 260 261 261 261 261 262 262 261 261 261 261 261 262 263 264 265 265 266 267 268 268 266 264 264 264 264 263 260 258 257 255 252 250 249 249 248 249 250 250 249 248 247 245 241 239 240 243 245 246 246 247 248 248 249 248 247 246 245 244 243 243
263 264 265 266 268 269 270 270 270 270 270 271 271 272 273 272 271 269 266 265 263 262 262 262 262 262 262 262 262 262 261 261 260 260 260 260 260 260 260 261 261 262 263 264 266 267 266 265 263 263 264 265 264 262 259 257 256 254 251 249 248 246 246 247 248 249 247 246 246 244 241 238 239 242 244 244 245 245 246 246 246 246 245 244 244 244 244 244
263 265 266 268 269 271 272 272 273 273 273 274 274 275 275 275 273 271 267 265 264 263 263 263 262 262 263 262 261 260 260 260 259 259 258 258 258 258 258 259 260 261 262 264 264 264 264 262 263 263 264 263 261 258 256 255 254 252 249 247 246 244 244 245 246 246 245 244 244 243 239 237 239 242 244 244 243 243 242 243 243 243 243 243 243 244 245 246
263 265 267 269 270 271 273 273 274 275 276 277 277 277 276 276 275 272 268 266 265 265 263 262 261 261 261 259 258 259 259 259 258 257 256 255 255 255 257 257 258 259 261 262 262 262 262 261 262 262 261 259 257 255 253 252 250 248 245 244 244 243 243 243 243 244 244 242 242 241 238 238 239 241 243 244 242 241 241 240 240 242 242 242 244 246 246 246
263 265 267 268 270 271 272 274 275 276 278 280 279 279 278 278 276 273 269 267 266 265 262 261 260 258 257 257 257 256 256 256 255 255 254 253 253 254 255 256 257 259 260 260 260 261 260 261 260 259 258 258 256 254 252 249 247 245 243 242 242 242 242 242 243 243 243 242 241 240 238 239 240 241 243 243 242 241 239 238 237 239 241 242 244 245 246 245
262 264 266 267 269 270 272 273 275 278 280 281 280 281 281 279 276 273 270 267 266 265 262 260 258 255 255 256 255 252 253 255 255 254 254 253 252 252 253 255 256 257 258 259 259 260 260 260 259 258 257 256 255 252 249 247 246 244 242 240 241 241 241 242 243 242 242 242 242 241 240 241 241 241 242 242 241 239 237 235 234 235 238 240 242 243 244 243
262 264 265 266 267 269 271 273 276 278 280 281 281 283 283 280 276 272 269 267 266 265 262 258 254 254 255 256 254 252 252 254 254 254 254 252 251 251 251 253 254 255 257 258 259 259 258 258 257 256 255 254 252 250 247 245 244 243 241 239 240 240 241 243 242 241 241 241 242 242 241 242 241 240 240 240 239 237 235 233 233 234 236 238 240 241 242 242
263 263 264 264 265 267 270 273 275 278 279 281 281 283 283 280 275 271 269 268 265 262 259 255 253 254 255 255 255 253 250 252 253 253 252 251 250 251 251 252 253 254 256 257 257 257 256 256 256 255 254 252 250 247 245 244 243 242 240 238 240 241 242 243 243 241 240 239 241 241 240 241 241 239 238 238 238 238 236 234 232 233 235 237 239 240 241 242
262 262 262 263 264 266 269 272 275 277 279 280 281 283 282 279 274 271 270 268 263 260 258 256 254 254 255 255 254 252 250 251 252 251 250 251 250 250 250 251 251 253 255 255 255 256 255 255 254 253 252 249 247 245 243 243 243 242 240 240 241 242 243 244 242 241 239 238 239 239 238 240 240 238 236 235 235 236 235 234 233 233 234 236 238 240 241 242
260 260 260 261 263 267 270 272 274 276 278 279 281 282 281 276 272 271 271 267 261 258 257 256 257 257 257 256 254 253 251 249 249 249 250 250 249 249 249 250 251 252 253 253 254 254 252 251 251 250 248 246 244 243 242 242 243 243 243 243 243 243 242 242 240 239 237 237 238 237 237 237 238 236 234 232 231 231 231 231 231 232 233 235 237 238 239 241
258 258 259 261 264 267 269 271 273 275 276 278 280 281 279 274 271 271 270 264 260 258 257 257 259 260 260 258 257 255 252 250 248 248 248 248 248 248 248 249 251 250 250 251 251 250 249 249 248 246 245 245 245 244 243 243 244 245 244 243 242 241 240 239 238 237 236 236 237 236 234 234 233 232 231 230 229 229 229 229 230 230 231 232 233 235 237 238
255 256 259 262 265 267 268 270 272 273 275 277 279 279 276 273 271 270 266 262 260 259 258 259 261 261 260 259 258 256 253 251 248 246 248 248 247 247 247 247 248 247 247 247 248 247 247 246 244 243 244 246 246 245 244 244 244 244 242 240 239 239 239 238 237 236 234 233 234 233 232 230 229 229 230 230 229 230 230 228 227 228 229 231 233 234 236 237
254 257 260 262 264 266 268 269 271 272 274 276 278 277 274 272 271 267 264 262 261 259 260 261 262 261 258 256 254 252 249 247 243 243 245 246 246 246 246 246 246 246 245 245 246 246 245 244 243 243 245 246 246 245 244 244 244 243 241 239 237 236 237 236 236 234 231 231 231 231 230 229 230 229 229 229 227 227 231 230 228 228 230 232 234 235 236 237
255 257 259 261 263 266 267 268 270 271 273 276 276 274 272 270 268 265 263 262 261 261 263 262 261 259 257 253 249 248 246 242 239 239 242 245 246 247 247 246 245 244 242 243 245 244 242 241 242 242 243 244 244 243 243 243 243 242 240 238 236 235 235 234 232 230 229 229 229 228 228 230 231 230 229 228 224 223 227 230 230 230 231 232 233 233 233 234
255 257 258 260 263 265 266 267 269 271 273 275 274 272 271 268 265 263 262 261 262 263 262 261 259 258 257 253 249 248 247 244 240 238 239 242 244 246 247 246 243 241 240 241 243 243 240 238 239 240 241 241 241 242 242 243 243 242 240 239 237 234 233 231 229 226 226 228 228 227 227 230 232 231 229 227 223 222 224 226 228 229 231 231 230 229 231 232
254 256 257 259 261 262 264 266 269 271 272 272 271 271 269 266 263 261 260 259 261 261 259 258 257 256 256 253 251 250 249 247 244 240 239 241 243 244 245 244 242 240 239 240 241 240 238 236 237 239 241 242 242 243 244 245 244 243 240 238 235 232 231 230 228 225 224 226 226 225 226 229 231 230 229 228 226 223 222 223 226 228 230 230 228 227 229 232
254 255 257 258 259 261 264 267 269 270 270 270 271 270 267 263 259 257 257 258 259 259 258 257 256 256 256 255 252 250 250 249 247 244 242 243 244 244 244 244 242 239 237 237 238 238 237 237 237 240 242 243 243 244 246 247 246 244 241 237 234 232 231 231 230 228 226 226 226 225 224 226 227 228 228 229 228 225 223 222 223 226 228 230 230 230 231 234
253 254 255 257 259 263 265 267 268 268 269 270 270 269 264 258 255 254 255 256 257 257 256 256 255 255 255 255 253 251 249 249 248 247 246 246 248 249 247 244 240 236 234 234 234 235 236 237 238 241 243 243 243 243 245 246 246 244 241 238 236 234 232 232 232 230 230 229 228 227 226 225 226 225 224 224 224 224 222 221 222 224 227 230 233 234 235 238
253 255 257 259 261 263 264 265 266 267 268 269 269 265 259 254 252 252 253 254 253 253 253 253 253 252 252 251 250 249 249 249 249 248 247 247 250 252 250 244 238 235 232 231 231 232 234 236 236 239 241 241 240 241 241 242 242 242 240 239 238 234 230 228 228 227 227 228 227 225 225 224 224 223 222 220 218 218 218 217 215 216 220 228 233 235 235 237
255 257 259 260 261 261 262 264 266 268 268 267 264 259 254 251 250 251 252 251 251 250 251 251 250 249 248 247 247 247 247 248 249 249 247 245 247 249 248 243 238 234 231 230 230 230 234 237 235 236 238 237 236 236 237 237 237 237 236 235 234 232 230 227 225 224 223 222 221 221 221 220 220 221 221 218 213 212 212 210 207 206 211 222 229 232 234 238
257 258 258 259 260 261 263 265 266 267 265 262 258 253 250 250 250 251 252 252 252 251 252 252 251 249 247 246 245 245 245 246 246 245 244 241 240 242 242 239 236 234 231 230 228 228 233 237 236 236 237 237 235 234 235 235 235 234 232 231 230 229 228 225 223 222 222 221 219 218 218 218 217 219 220 217 212 209 210 208 204 203 210 218 223 229 238 247
257 257 258 259 261 262 264 265 265 263 260 256 252 249 250 251 251 250 251 252 252 251 252 253 253 251 249 247 244 243 244 244 242 242 242 238 235 236 235 232 231 232 231 230 228 227 232 237 237 235 236 237 236 235 236 235 234 233 231 230 229 227 226 225 222 221 220 220 219 217 216 216 217 219 219 218 213 209 209 205 199 198 204 206 208 224 238 248
257 258 259 260 262 263 263 263 261 258 255 253 250 250 250 251 251 251 251 252 252 251 251 252 252 251 251 249 245 242 241 241 240 240 241 239 235 233 231 228 228 228 230 230 229 228 231 237 239 237 235 237 237 235 236 236 235 234 232 230 229 227 226 225 224 223 220 219 218 217 215 215 216 217 218 218 213 208 205 200 195 194 194 189 198 217 224 228
256 257 259 260 260 260 259 257 255 253 253 253 253 253 253 253 253 252 252 253 253 252 251 252 250 249 248 247 244 241 239 239 238 238 238 238 236 234 230 227 226 226 228 230 231 231 233 238 241 239 236 237 237 236 236 236 236 235 233 232 231 228 225 222 222 222 222 221 219 216 215 215 215 215 216 216 212 207 203 199 196 196 192 188 203 221 225 223
253 254 255 256 256 256 256 255 255 255 255 254 254 254 255 256 256 255 254 253 254 253 251 251 250 247 245 243 242 240 238 237 235 235 235 235 235 235 230 226 225 225 226 227 229 230 233 238 242 240 236 237 238 238 237 237 236 236 236 234 233 231 226 221 220 220 220 221 220 217 215 215 216 216 215 215 211 206 203 200 199 200 197 193 201 216 224 225
251 252 252 254 255 256 257 259 260 261 261 260 259 257 256 256 256 256 254 253 254 253 251 250 249 246 244 242 239 237 235 234 232 231 232 231 231 233 231 226 223 223 223 224 225 227 229 234 240 240 236 235 238 238 237 237 235 235 236 235 233 232 228 223 221 220 218 218 219 217 216 215 215 215 215 214 211 206 202 200 201 206 206 204 207 214 220 224
251 252 253 255 258 260 262 262 263 263 263 263 263 262 260 258 257 256 255 252 251 251 250 248 247 245 243 241 238 235 233 232 230 229 229 229 229 230 230 227 222 221 223 223 223 225 227 230 236 238 234 232 235 238 238 237 235 233 233 234 233 231 229 226 223 221 219 219 218 217 216 216 216 215 215 214 211 207 202 199 200 206 210 211 213 216 220 222
254 256 258 260 263 265 266 266 266 266 266 266 265 264 263 261 259 258 256 252 250 249 247 246 244 243 241 239 238 234 231 230 229 227 227 226 226 227 228 227 223 221 222 223 223 224 226 226 230 234 233 229 230 235 237 237 236 233 231 231 231 231 229 228 226 223 221 220 219 218 217 217 217 217 217 215 212 208 203 201 202 206 211 214 215 217 219 222
260 263 265 267 269 270 271 271 272 272 271 269 267 265 264 263 261 259 257 253 249 247 245 243 242 241 239 238 236 234 231 230 229 227 226 225 224 223 225 226 225 223 222 223 223 224 225 225 227 231 232 230 228 231 235 236 235 234 231 228 228 229 229 227 225 223 222 221 220 219 218 218 217 217 217 217 215 211 205 202 204 209 213 215 215 216 219 221
264 267 270 272 274 276 276 277 277 276 275 273 270 268 265 263 261 259 257 254 249 245 242 241 239 238 237 236 235 233 231 229 229 228 227 227 225 223 222 223 224 225 224 223 222 223 224 225 227 229 231 231 229 228 230 233 233 232 232 230 227 225 226 226 224 222 221 220 218 219 220 220 219 218 217 216 215 214 209 205 205 210 214 214 214 216 219 221
266 270 273 276 277 278 278 278 278 277 276 274 272 270 267 265 262 259 256 254 249 243 240 239 238 237 236 236 235 233 231 230 229 228 228 228 228 225 222 221 222 224 225 225 224 223 224 225 227 228 230 232 231 228 227 228 229 229 231 232 230 226 224 224 224 222 221 220 219 219 219 220 221 221 219 216 214 213 211 209 208 209 212 213 214 217 221 222
270 273 275 277 277 278 278 279 279 278 277 274 272 270 268 266 263 260 255 252 249 243 239 238 239 238 237 237 237 235 232 231 230 229 228 228 229 228 225 222 222 222 222 224 225 225 224 225 227 227 228 231 232 231 228 227 227 227 228 230 232 230 227 225 223 222 220 220 220 221 220 221 221 222 221 219 217 214 211 210 210 210 210 212 215 218 222 224
275 277 278 279 280 280 280 281 280 280 279 278 275 273 270 267 263 259 254 250 247 244 239 237 237 238 237 237 236 235 233 231 230 229 228 228 228 228 228 226 225 223 221 221 222 224 224 225 227 228 227 228 230 231 231 230 229 227 227 229 232 233 232 229 226 224 222 220 219 220 221 222 223 224 223 222 220 217 214 211 211 211 213 214 216 219 223 226
Height
10649 10651 10652 10654 10656 10658 10660 10662 10664 10666 10668 10669 10671 10673 10675 10676 10678 10680 10681 10683 10684 10685 10686 10686 10687 10687 10687 10688 10688 10689 10690 10691 10691 10692 10693 10694 10694 10695 10696 10695 10695 10696 10698 10697 10697 10699 10700 10703 10705 10706 10707 10709 10711 10712 10716 10719 10722 10728 10729 10727 10722 10714 10708 10709 10717 10722 10724 10727 10729 10735 10743 10748 10751 10753 10756 10759 10763 10766 10768 10769 10768 10766 10767 10766 10766 10769 10771 10773
10642 10644 10646 10648 10650 10652 10654 10656 10658 10659 10661 10663 10665 10667 10668 10670 10672 10673 10675 10676 10677 10678 10679 10679 10680 10680 10681 10681 10681 10682 10683 10684 10684 10685 10686 10686 10687 10688 10689 10688 10688 10689 10690 10690 10690 10691 10693 10695 10697 10697 10699 10701 10704 10705 10709 10711 10715 10720 10719 10719 10711 10701 10700 10704 10711 10716 10717 10720 10722 10729 10737 10741 10745 10747 10749 10751 10755 10759 10760 10760 10759 10758 10759 10758 10759 10763 10766 10769
10636 10638 10640 10642 10643 10645 10647 10649 10651 10653 10655 10656 10658 10660 10662 10663 10665 10667 10668 10669 10670 10671 10672 10672 10673 10673 10674 10674 10674 10675 10676 10677 10677 10678 10678 10679 10680 10681 10681 10681 10680 10681 10682 10683 10683 10685 10686 10688 10688 10689 10691 10693 10696 10699 10701 10703 10707 10710 10712 10711 10698 10691 10696 10700 10704 10709 10710 10713 10717 10725 10730 10734 10739 10741 10742 10745 10748 10751 10751 10751 10750 10751 10751 10750 10754 10759 10761 10766
10630 10632 10633 10635 10637 10639 10640 10642 10644 10646 10648 10650 10652 10653 10655 10657 10658 10660 10661 10662 10663 10664 10665 10665 10666 10666 10666 10667 10667 10668 10669 10669 10670 10670 10671 10672 10673 10673 10674 10673 10673 10673 10674 10675 10677 10678 10679 10680 10681 10682 10684 10685 10689 10693 10693 10694 10700 10703 10706 10701 10686 10686 10693 10692 10697 10702 10704 10708 10712 10719 10724 10729 10733 10734 10736 10739 10741 10742 10742 10742 10742 10743 10743 10744 10750 10754 10757 10762
10624 10625 10627 10629 10630 10632 10634 10636 10638 10639 10641 10643 10645 10647 10648 10650 10651 10653 10654 10655 10656 10657 10658 10658 10659 10659 10659 10659 10660 10661 10661 10662 10663 10663 10664 10665 10665 10666 10666 10666 10666 10666 10666 10667 10669 10671 10672 10673 10674 10675 10676 10678 10682 10686 10684 10686 10694 10697 10698 10691 10679 10681 10685 10685 10692 10696 10698 10702 10706 10711 10718 10723 10727 10727 10730 10733 10734 10734 10734 10734 10735 10736 10735 10739 10746 10750 10754 10757
10618 10619 10621 10622 10624 10626 10628 10629 10631 10633 10635 10637 10639 10640 10642 10643 10645 10646 10647 10648 10649 10650 10650 10651 10651 10651 10652 10652 10653 10654 10654 10655 10655 10655 10656 10657 10658 10658 10658 10658 10658 10659 10659 10660 10662 10664 10665 10665 10667 10668 10669 10672 10675 10677 10677 10681 10689 10691 10689 10683 10673 10674 10676 10679 10687 10689 10692 10696 10698 10705 10711 10717 10720 10721 10723 10726 10726 10726 10726 10727 10728 10728 10729 10734 10741 10747 10750 10753
10611 10613 10615 10616 10618 10620 10621 10623 10625 10627 10628 10630 10632 10633 10635 10636 10638 10639 10640 10641 10642 10642 10643 10644 10644 10644 10644 10644 10645 10646 10646 10647 10646 10647 10648 10649 10650 10650 10650 10651 10651 10652 10652 10653 10654 10656 10657 10658 10660 10662 10663 10665 10668 10669 10670 10676 10682 10683 10680 10674 10666 10666 10669 10673 10681 10683 10686 10689 10692 10699 10704 10710 10713 10714 10717 10719 10719 10718 10718 10720 10721 10721 10724 10730 10736 10743 10747 10750
10605 10606 10608 10610 10612 10614 10615 10617 10618 10620 10622 10624 10625 10627 10628 10630 10631 10632 10633 10634 10634 10635 10635 10636 10636 10637 10637 10636 10636 10637 10639 10639 10638 10638 10640 10641 10641 10642 10643 10643 10644 10645 10645 10645 10647 10649 10649 10651 10653 10656 10656 10658 10661 10661 10663 10669 10675 10674 10669 10665 10661 10661 10662 10666 10675 10679 10681 10683 10686 10692 10698 10703 10707 10709 10712 10711 10710 10709 10710 10713 10713 10714 10719 10726 10732 10738 10743 10748
10598 10600 10602 10603 10605 10607 10609 10610 10612 10614 10615 10617 10618 10620 10621 10622 10624 10625 10626 10626 10626 10626 10627 10628 10628 10628 10628 10628 10628 10629 10631 10631 10631 10631 10632 10632 10633 10635 10636 10637 10637 10637 10637 10638 10639 10641 10642 10645 10647 10649 10649 10650 10653 10652 10655 10662 10666 10663 10659 10658 10657 10655 10655 10660 10669 10672 10673 10676 10680 10686 10691 10695 10700 10703 10703 10701 10700 10701 10703 10705 10705 10708 10715 10721 10727 10733 10739 10746
10592 10593 10595 10597 10599 10601 10602 10604 10605 10606 10608 10609 10611 10612 10614 10615 10616 10617 10618 10618 10618 10618 10619 10619 10620 10620 10620 10620 10620 10621 10624 10624 10624 10624 10624 10625 10626 10628 10630 10629 10630 10629 10630 10630 10632 10634 10636 10639 10640 10641 10641 10642 10645 10645 10649 10654 10655 10654 10652 10652 10651 10648 10647 10652 10660 10662 10664 10670 10673 10678 10682 10686 10692 10694 10693 10692 10692 10693 10695 10697 10699 10704 10710 10716 10722 10728 10734 10741
10585 10587 10589 10590 10592 10594 10595 10597 10598 10599 10600 10601 10603 10604 10605 10607 10608 10609 10610 10610 10610 10611 10611 10612 10612 10612 10612 10612 10612 10615 10617 10616 10616 10616 10616 10617 10619 10621 10622 10622 10622 10622 10622 10622 10624 10627 10629 10632 10633 10633 10633 10635 10637 10637 10641 10643 10644 10646 10646 10645 10643 10640 10640 10644 10650 10652 10656 10664 10665 10669 10674 10679 10685 10685 10683 10683 10683 10683 10686 10690 10693 10699 10705 10710 10717 10722 10727 10732
10578 10580 10582 10583 10585 10586 10588 10589 10590 10591 10592 10594 10595 10596 10597 10598 10600 10601 10602 10602 10603 10603 10603 10604 10604 10604 10604 10603 10606 10609 10608 10607 10608 10609 10609 10610 10612 10614 10615 10615 10615 10615 10615 10615 10617 10620 10622 10624 10625 10625 10626 10628 10628 10629 10632 10634 10635 10638 10638 10637 10634 10633 10634 10635 10639 10642 10648 10655 10656 10661 10666 10671 10675 10674 10673 10674 10672 10674 10679 10683 10687 10693 10698 10704 10712 10716 10718 10721
10572 10574 10575 10577 10578 10579 10580 10581 10582 10583 10584 10586 10587 10588 10589 10590 10592 10593 10595 10595 10595 10596 10596 10597 10596 10597 10596 10595 10601 10602 10599 10600 10601 10601 10603 10604 10606 10606 10606 10607 10608 10608 10608 10609 10611 10613 10615 10617 10617 10618 10619 10620 10620 10621 10624 10626 10628 10629 10631 10630 10626 10626 10627 10624 10627 10633 10639 10645 10647 10653 10659 10663 10665 10663 10663 10665 10665 10668 10672 10676 10681 10686 10692 10700 10706 10708 10709 10711
10566 10567 10569 10570 10571 10572 10573 10574 10575 10576 10577 10578 10579 10581 10582 10583 10585 10586 10588 10587 10588 10589 10589 10589 10588 10589 10587 10587 10594 10594 10590 10593 10594 10594 10597 10597 10597 10597 10599 10601 10601 10600 10601 10602 10603 10605 10608 10610 10610 10611 10612 10612 10612 10614 10616 10618 10620 10620 10623 10623 10618 10619 10618 10613 10618 10625 10631 10636 10638 10645 10652 10654 10654 10653 10654 10658 10659 10660 10663 10668 10675 10681 10687 10695 10699 10699 10699 10701
10560 10562 10563 10564 10565 10566 10567 10567 10568 10569 10570 10571 10573 10574 10575 10576 10577 10579 10580 10580 10581 10582 10582 10582 10580 10581 10579 10579 10587 10586 10583 10585 10586 10588 10589 10588 10588 10590 10592 10594 10594 10593 10594 10595 10596 10598 10601 10603 10603 10603 10604 10605 10605 10607 10607 10610 10612 10612 10614 10614 10611 10611 10607 10604 10611 10617 10621 10626 10630 10639 10645 10645 10646 10644 10644 10650 10652 10652 10656 10661 10668 10676 10682 10689 10692 10690 10689 10691
10555 10556 10557 10558 10559 10560 10560 10561 10562 10563 10564 10565 10566 10567 10568 10569 10571 10573 10573 10573 10575 10575 10574 10574 10572 10573 10572 10572 10578 10579 10577 10578 10579 10580 10580 10579 10581 10584 10585 10586 10586 10585 10587 10589 10589 10591 10594 10596 10596 10596 10597 10597 10597 10599 10600 10602 10604 10603 10605 10605 10603 10603 10599 10598 10605 10608 10611 10618 10624 10632 10638 10637 10638 10634 10634 10645 10647 10645 10649 10654 10661 10670 10676 10681 10683 10681 10680 10682
10549 10551 10552 10552 10553 10554 10555 10555 10556 10557 10558 10559 10560 10561 10562 10563 10565 10567 10567 10567 10567 10567 10566 10565 10564 10565 10564 10565 10568 10570 10571 10572 10572 10572 10571 10571 10574 10576 10577 10577 10579 10579 10580 10582 10583 10584 10586 10588 10589 10589 10590 10589 10589 10591 10592 10594 10593 10593 10595 10596 10596 10596 10594 10594 10597 10600 10604 10612 10620 10628 10633 10633 10631 10626 10628 10639 10641 10639 10642 10647 10656 10665 10670 10673 10673 10672 10672 10674
10544 10545 10546 10546 10547 10548 10549 10550 10551 10552 10552 10553 10554 10555 10557 10558 10559 10559 10560 10560 10559 10558 10557 10556 10555 10556 10556 10556 10558 10561 10564 10565 10564 10563 10563 10564 10566 10568 10569 10570 10572 10572 10573 10575 10576 10576 10579 10581 10582 10582 10581 10580 10581 10583 10585 10584 10583 10586 10590 10591 10592 10592 10591 10589 10589 10594 10601 10608 10616 10623 10627 10628 10624 10619 10621 10631 10633 10631 10636 10643 10653 10661 10663 10664 10664 10664 10664 10667
10538 10539 10540 10540 10541 10542 10543 10544 10545 10545 10546 10547 10548 10549 10551 10552 10551 10551 10552 10552 10550 10548 10548 10548 10547 10547 10547 10547 10550 10554 10557 10556 10556 10556 10556 10556 10558 10559 10561 10563 10565 10565 10566 10567 10568 10570 10573 10574 10574 10573 10571 10572 10575 10577 10578 10577 10577 10581 10585 10585 10586 10586 10586 10582 10582 10590 10596 10602 10609 10613 10618 10619 10615 10609 10611 10621 10624 10626 10633 10641 10649 10655 10655 10655 10655 10655 10656 10659
10532 10532 10533 10533 10534 10536 10536 10537 10538 10538 10539 10541 10542 10542 10543 10544 10543 10543 10543 10543 10540 10538 10540 10540 10539 10539 10538 10539 10543 10546 10548 10548 10548 10548 10548 10548 10549 10551 10553 10556 10558 10558 10558 10559 10562 10564 10567 10567 10564 10563 10564 10567 10571 10572 10571 10571 10571 10576 10579 10578 10578 10580 10580 10575 10576 10584 10590 10596 10600 10603 10609 10610 10604 10599 10603 10612 10618 10623 10632 10639 10644 10647 10648 10646 10646 10646 10648 10651
10525 10525 10526 10526 10528 10529 10529 10530 10530 10531 10532 10533 10535 10535 10535 10535 10535 10536 10535 10534 10530 10529 10532 10532 10533 10532 10528 10531 10537 10539 10540 10539 10539 10539 10540 10541 10542 10544 10546 10549 10551 10551 10550 10552 10556 10558 10559 10558 10554 10556 10560 10563 10565 10565 10565 10565 10565 10569 10572 10572 10572 10574 10573 10570 10572 10577 10583 10590 10592 10594 10602 10602 10596 10593 10597 10606 10614 10621 10628 10633 10638 10640 10639 10638 10637 10638 10641 10645
10518 10518 10519 10520 10521 10522 10522 10523 10523 10524 10525 10526 10527 10526 10526 10526 10527 10527 10527 10526 10520 10520 10524 10524 10525 10523 10518 10523 10528 10530 10531 10529 10528 10531 10533 10535 10536 10537 10538 10541 10543 10542 10543 10547 10550 10551 10551 10549 10548 10552 10556 10556 10558 10558 10558 10558 10559 10563 10565 10566 10566 10566 10566 10565 10567 10570 10577 10585 10585 10588 10595 10593 10589 10588 10593 10603 10611 10616 10622 10628 10631 10632 10631 10630 10629 10632 10636 10641
10511 10511 10512 10513 10515 10515 10515 10516 10516 10517 10517 10518 10518 10517 10518 10519 10519 10518 10519 10519 10512 10511 10515 10514 10516 10515 10509 10511 10519 10524 10523 10519 10519 10522 10525 10527 10528 10531 10532 10533 10535 10535 10537 10540 10543 10544 10543 10542 10543 10548 10549 10549 10551 10551 10552 10552 10553 10556 10558 10560 10560 10559 10560 10559 10560 10566 10574 10578 10577 10581 10586 10584 10584 10586 10591 10601 10608 10613 10617 10622 10625 10624 10624 10624 10624 10627 10632 10636
10504 10505 10505 10506 10508 10508 10509 10509 10509 10509 10510 10510 10509 10508 10511 10512 10512 10510 10510 10511 10504 10499 10504 10506 10509 10506 10497 10502 10514 10518 10512 10508 10510 10513 10517 10520 10522 10525 10526 10526 10528 10529 10530 10533 10536 10536 10535 10536 10539 10541 10542 10543 10544 10545 10546 10546 10547 10550 10552 10554 10553 10552 10554 10552 10556 10564 10570 10572 10571 10575 10579 10578 10580 10584 10590 10598 10604 10609 10613 10616 10617 10617 10617 10618 10619 10622 10626 10631
10497 10498 10498 10499 10501 10501 10502 10502 10502 10502 10502 10502 10500 10500 10504 10504 10504 10502 10501 10502 10495 10489 10495 10501 10500 10494 10490 10498 10507 10507 10503 10501 10503 10505 10510 10514 10516 10519 10520 10520 10521 10522 10523 10527 10530 10530 10530 10531 10533 10534 10536 10537 10538 10539 10540 10540 10542 10544 10546 10547 10546 10546 10547 10548 10554 10562 10565 10566 10566 10569 10573 10573 10576 10583 10589 10595 10600 10605 10608 10609 10609 10609 10610 10611 10613 10616 10619 10624
10491 10491 10491 10492 10494 10495 10496 10496 10495 10495 10494 10494 10493 10493 10496 10496 10495 10493 10492 10493 10486 10482 10487 10492 10491 10486 10486 10493 10497 10500 10499 10494 10495 10500 10504 10507 10509 10511 10514 10514 10514 10515 10517 10522 10524 10523 10524 10525 10526 10528 10530 10532 10532 10533 10534 10535 10537 10538 10539 10540 10539 10540 10543 10545 10552 10558 10560 10561 10561 10564 10568 10568 10573 10581 10587 10592 10595 10599 10601 10602 10603 10603 10604 10605 10608 10611 10613 10617
10484 10484 10485 10485 10487 10489 10489 10489 10488 10488 10487 10486 10485 10486 10488 10488 10486 10485 10485 10484 10478 10476 10479 10482 10483 10481 10482 10487 10490 10492 10491 10487 10490 10496 10496 10498 10502 10506 10508 10508 10507 10509 10513 10518 10517 10515 10518 10520 10520 10523 10525 10526 10527 10527 10528 10530 10532 10532 10532 10534 10534 10537 10541 10543 10549 10553 10555 10556 10556 10559 10563 10564 10569 10578 10584 10587 10590 10593 10596 10596 10597 10597 10598 10600 10603 10605 10608 10611
10477 10478 10478 10478 10480 10483 10483 10481 10481 10481 10480 10479 10478 10479 10480 10480 10478 10477 10477 10475 10469 10469 10472 10474 10475 10477 10478 10482 10483 10483 10484 10484 10486 10488 10489 10492 10497 10500 10501 10500 10501 10504 10509 10512 10509 10509 10514 10515 10515 10518 10520 10520 10520 10521 10523 10526 10526 10525 10526 10530 10533 10536 10538 10540 10545 10547 10549 10552 10551 10554 10558 10560 10566 10574 10579 10582 10585 10587 10589 10590 10591 10592 10594 10596 10598 10601 10604 10608
10470 10471 10471 10471 10473 10476 10475 10474 10474 10474 10473 10472 10471 10471 10472 10472 10471 10470 10470 10465 10461 10463 10467 10467 10469 10473 10475 10475 10475 10476 10478 10479 10480 10482 10484 10487 10491 10494 10494 10494 10496 10502 10505 10504 10502 10505 10508 10508 10511 10514 10514 10513 10513 10516 10519 10521 10519 10519 10524 10528 10531 10532 10533 10536 10539 10541 10545 10548 10547 10550 10554 10557 10563 10569 10573 10575 10578 10580 10582 10584 10586 10588 10591 10593 10595 10598 10601 10604
10463 10464 10464 10465 10466 10468 10468 10467 10467 10467 10466 10465 10465 10465 10465 10464 10463 10464 10461 10455 10453 10458 10462 10463 10465 10469 10470 10469 10469 10472 10473 10474 10476 10477 10478 10481 10485 10487 10488 10489 10492 10497 10499 10498 10497 10500 10502 10504 10507 10508 10506 10507 10510 10512 10515 10515 10514 10517 10522 10525 10526 10527 10528 10531 10534 10537 10542 10544 10543 10546 10550 10554 10559 10562 10565 10568 10572 10574 10577 10579 10582 10584 10586 10588 10590 10593 10597 10600
10456 10457 10458 10458 10459 10460 10460 10460 10460 10460 10459 10458 10458 10458 10458 10457 10456 10456 10451 10446 10450 10454 10457 10459 10462 10463 10464 10463 10464 10466 10468 10471 10473 10472 10473 10476 10480 10481 10482 10484 10487 10491 10494 10492 10491 10494 10498 10500 10502 10501 10502 10504 10506 10508 10510 10510 10511 10514 10517 10520 10522 10523 10524 10527 10530 10534 10539 10539 10539 10542 10546 10549 10553 10556 10559 10563 10567 10571 10573 10575 10577 10579 10581 10583 10586 10590 10594 10597
10450 10451 10451 10451 10452 10452 10452 10452 10453 10453 10452 10451 10451 10451 10451 10450 10448 10446 10442 10442 10446 10450 10453 10456 10457 10457 10457 10457 10457 10459 10462 10465 10467 10468 10468 10471 10474 10475 10477 10480 10483 10487 10489 10486 10485 10490 10495 10496 10496 10498 10499 10500 10501 10503 10505 10506 10508 10510 10513 10515 10517 10519 10521 10524 10527 10531 10534 10533 10535 10539 10542 10545 10548 10552 10555 10558 10563 10567 10569 10571 10573 10575 10577 10579 10583 10588 10591 10593
10443 10444 10444 10444 10445 10445 10444 10444 10446 10446 10445 10444 10444 10444 10444 10443 10439 10437 10437 10439 10442 10446 10450 10451 10450 10450 10450 10450 10450 10452 10455 10458 10461 10463 10464 10467 10469 10470 10472 10475 10479 10482 10482 10481 10482 10487 10491 10491 10492 10494 10494 10494 10496 10498 10500 10502 10504 10506 10508 10511 10514 10516 10517 10520 10523 10527 10528 10528 10531 10535 10538 10540 10544 10548 10552 10555 10559 10563 10565 10568 10570 10572 10574 10576 10580 10584 10586 10588
10435 10436 10437 10438 10438 10438 10437 10437 10439 10439 10437 10437 10437 10437 10436 10434 10431 10431 10433 10435 10438 10442 10444 10443 10443 10444 10444 10445 10445 10447 10450 10452 10456 10459 10460 10463 10465 10466 10468 10471 10474 10476 10477 10478 10479 10483 10485 10487 10488 10488 10488 10489 10492 10494 10496 10498 10501 10503 10505 10508 10511 10513 10514 10516 10519 10522 10523 10525 10528 10532 10535 10537 10541 10545 10548 10551 10555 10558 10561 10564 10566 10568 10570 10573 10577 10580 10582 10584
10427 10429 10430 10431 10431 10430 10429 10429 10431 10432 10430 10429 10430 10430 10428 10426 10425 10427 10428 10430 10433 10436 10437 10437 10437 10438 10439 10440 10440 10442 10445 10448 10452 10454 10456 10458 10460 10462 10464 10466 10469 10471 10473 10475 10476 10478 10480 10482 10482 10482 10484 10486 10488 10491 10494 10496 10498 10499 10502 10505 10507 10508 10509 10511 10515 10517 10519 10522 10525 10529 10532 10534 10537 10541 10545 10548 10552 10555 10557 10560 10562 10564 10567 10570 10574 10577 10579 10581
10420 10422 10423 10424 10423 10423 10423 10423 10423 10424 10423 10422 10422 10422 10421 10420 10420 10421 10422 10425 10429 10431 10431 10431 10431 10433 10435 10436 10436 10438 10440 10444 10447 10450 10452 10454 10455 10457 10460 10463 10466 10468 10470 10472 10472 10474 10476 10477 10478 10480 10481 10483 10485 10489 10491 10493 10495 10497 10498 10500 10501 10504 10506 10509 10512 10514 10516 10519 10523 10527 10529 10532 10535 10538 10543 10546 10549 10551 10554 10556 10558 10561 10564 10568 10571 10573 10576 10577
10413 10415 10415 10416 10416 10416 10416 10416 10416 10416 10416 10416 10415 10414 10413 10413 10413 10415 10417 10421 10424 10425 10424 10424 10426 10428 10431 10432 10433 10435 10436 10438 10441 10444 10448 10450 10451 10453 10456 10460 10462 10463 10466 10467 10468 10470 10471 10472 10475 10476 10477 10479 10483 10487 10488 10489 10492 10493 10494 10495 10498 10502 10505 10507 10509 10512 10514 10517 10521 10525 10527 10529 10532 10535 10539 10543 10546 10549 10550 10553 10556 10559 10563 10567 10569 10572 10574 10576
10407 10407 10408 10408 10409 10409 10409 10408 10408 10409 10409 10408 10407 10406 10406 10407 10408 10410 10412 10415 10418 10418 10417 10417 10420 10423 10425 10427 10429 10431 10432 10432 10435 10440 10444 10446 10447 10448 10451 10455 10457 10459 10461 10462 10464 10466 10467 10467 10470 10471 10473 10476 10480 10482 10484 10486 10487 10488 10490 10493 10496 10499 10501 10504 10506 10509 10511 10514 10518 10522 10524 10527 10530 10532 10535 10538 10543 10545 10547 10550 10553 10556 10561 10565 10568 10570 10572 10573
10400 10401 10401 10401 10402 10402 10402 10401 10401 10401 10401 10401 10400 10400 10400 10401 10403 10404 10405 10408 10411 10411 10410 10410 10414 10417 10419 10422 10424 10426 10427 10428 10432 10435 10438 10441 10443 10442 10445 10450 10453 10455 10457 10458 10460 10463 10463 10463 10465 10467 10469 10472 10476 10478 10480 10482 10483 10484 10487 10489 10491 10494 10497 10500 10503 10505 10508 10511 10514 10518 10521 10524 10526 10528 10531 10535 10539 10541 10543 10546 10548 10551 10555 10560 10565 10568 10569 10570
10393 10394 10394 10394 10394 10395 10395 10394 10394 10393 10394 10394 10394 10394 10394 10395 10398 10398 10400 10402 10404 10405 10404 10405 10408 10412 10414 10417 10420 10422 10422 10424 10427 10429 10431 10436 10437 10437 10440 10445 10448 10451 10453 10454 10457 10459 10459 10459 10461 10463 10466 10469 10472 10474 10476 10478 10479 10481 10483 10485 10487 10489 10492 10495 10499 10502 10504 10508 10511 10514 10517 10520 10522 10524 10528 10531 10534 10536 10539 10543 10546 10549 10553 10557 10563 10568 10568 10569
10386 10387 10387 10387 10387 10387 10388 10387 10386 10386 10387 10387 10388 10389 10389 10389 10391 10392 10394 10395 10398 10399 10399 10400 10404 10407 10410 10413 10416 10417 10418 10419 10421 10423 10426 10430 10432 10432 10435 10439 10443 10446 10448 10451 10453 10455 10455 10455 10456 10460 10463 10466 10469 10471 10473 10475 10476 10478 10480 10481 10483 10486 10488 10492 10495 10498 10501 10504 10507 10511 10514 10516 10518 10522 10524 10527 10531 10534 10536 10540 10543 10546 10550 10556 10563 10568 10568 10568
10379 10380 10380 10380 10380 10380 10381 10380 10380 10380 10381 10381 10382 10383 10383 10383 10384 10386 10388 10388 10390 10392 10393 10394 10398 10402 10406 10408 10410 10412 10413 10413 10416 10419 10421 10424 10427 10429 10431 10435 10438 10442 10444 10447 10449 10451 10453 10452 10452 10456 10461 10463 10465 10467 10469 10471 10473 10475 10477 10479 10481 10483 10486 10489 10492 10494 10497 10500 10503 10507 10510 10512 10515 10518 10520 10524 10528 10531 10533 10536 10539 10542 10546 10551 10557 10561 10562 10564
10373 10373 10373 10374 10374 10374 10374 10374 10374 10374 10375 10376 10376 10377 10377 10376 10377 10380 10382 10382 10383 10386 10388 10389 10393 10397 10400 10401 10403 10407 10408 10409 10412 10415 10416 10420 10422 10425 10428 10431 10434 10438 10441 10443 10445 10447 10449 10449 10448 10453 10459 10460 10462 10464 10466 10468 10470 10472 10474 10476 10478 10480 10483 10486 10488 10490 10493 10496 10499 10503 10506 10508 10511 10513 10516 10520 10524 10528 10530 10533 10536 10540 10543 10548 10552 10553 10554 10557
10367 10367 10368 10368 10368 10369 10369 10369 10369 10369 10370 10370 10371 10371 10371 10370 10371 10372 10375 10376 10377 10380 10383 10384 10388 10391 10392 10393 10396 10400 10402 10404 10407 10409 10411 10415 10418 10421 10425 10427 10430 10434 10436 10438 10440 10443 10445 10445 10445 10449 10455 10458 10459 10461 10463 10465 10467 10469 10472 10474 10475 10477 10480 10482 10484 10486 10489 10492 10496 10499 10503 10505 10507 10510 10513 10516 10520 10524 10527 10530 10533 10537 10540 10544 10546 10546 10546 10549
10362 10363 10363 10363 10363 10364 10364 10364 10364 10364 10363 10364 10364 10364 10364 10364 10364 10365 10368 10371 10371 10373 10376 10379 10381 10382 10384 10386 10389 10392 10395 10398 10401 10403 10405 10409 10412 10415 10418 10422 10425 10428 10430 10432 10434 10437 10439 10440 10441 10445 10452 10455 10456 10457 10459 10461 10464 10466 10469 10470 10472 10474 10476 10478 10480 10482 10485 10488 10491 10495 10498 10500 10503 10505 10508 10511 10516 10520 10522 10525 10530 10534 10537 10538 10538 10538 10539 10542
10358 10358 10359 10359 10359 10360 10359 10359 10359 10358 10358 10358 10357 10356 10356 10357 10357 10358 10360 10364 10365 10366 10369 10371 10372 10374 10377 10379 10381 10385 10389 10391 10393 10396 10399 10403 10407 10409 10412 10416 10419 10421 10424 10426 10429 10432 10434 10437 10438 10441 10447 10451 10452 10453 10454 10456 10459 10462 10465 10466 10468 10470 10472 10474 10477 10479 10481 10484 10487 10490 10493 10495 10498 10500 10503 10507 10511 10515 10518 10520 10524 10528 10530 10531 10531 10532 10533 10536
10354 10354 10355 10355 10355 10355 10354 10353 10353 10352 10352 10352 10350 10349 10348 10348 10350 10350 10352 10355 10357 10359 10361 10362 10363 10365 10368 10370 10373 10378 10381 10383 10385 10389 10392 10396 10400 10403 10406 10410 10413 10416 10418 10421 10424 10427 10430 10433 10435 10437 10441 10446 10448 10448 10449 10452 10455 10458 10460 10463 10464 10466 10469 10471 10473 10476 10478 10480 10483 10485 10488 10490 10493 10495 10499 10502 10506 10510 10513 10516 10518 10519 10521 10522 10524 10526 10528 10531
10350 10350 10350 10351 10350 10349 10348 10348 10347 10346 10345 10344 10343 10343 10341 10340 10342 10343 10343 10346 10349 10351 10352 10353 10354 10356 10359 10361 10364 10369 10373 10376 10379 10383 10386 10389 10393 10397 10400 10403 10407 10411 10413 10416 10419 10422 10425 10428 10430 10432 10436 10439 10442 10444 10446 10448 10450 10453 10455 10458 10460 10462 10464 10467 10470 10473 10475 10477 10479 10481 10483 10485 10488 10491 10495 10499 10503 10506 10509 10511 10513 10514 10515 10516 10519 10521 10523 10525
10347 10346 10346 10346 10345 10344 10342 10342 10341 10340 10339 10337 10336 10335 10334 10334 10335 10335 10336 10338 10341 10343 10344 10344 10345 10347 10350 10352 10356 10361 10366 10369 10372 10377 10380 10383 10387 10390 10394 10397 10401 10405 10408 10411 10414 10418 10421 10424 10425 10428 10430 10433 10436 10439 10442 10444 10446 10448 10450 10453 10456 10458 10460 10462 10465 10468 10470 10473 10475 10476 10478 10480 10483 10486 10490 10494 10498 10502 10504 10506 10508 10509 10511 10512 10514 10516 10518 10520
10344 10343 10342 10341 10341 10339 10338 10337 10336 10335 10333 10331 10330 10329 10327 10327 10328 10329 10330 10331 10333 10335 10336 10336 10337 10339 10342 10344 10348 10353 10359 10363 10367 10371 10376 10379 10381 10384 10389 10392 10395 10398 10402 10406 10410 10413 10416 10418 10420 10423 10425 10427 10430 10434 10437 10439 10441 10443 10446 10448 10451 10453 10456 10458 10460 10463 10465 10468 10469 10471 10473 10476 10478 10482 10485 10488 10492 10495 10498 10500 10502 10504 10506 10508 10509 10511 10512 10514
10340 10339 10339 10338 10337 10336 10334 10332 10331 10330 10328 10327 10325 10323 10322 10322 10322 10323 10324 10325 10326 10328 10329 10330 10331 10334 10337 10340 10343 10348 10354 10359 10362 10366 10370 10373 10375 10379 10384 10386 10388 10392 10396 10400 10404 10408 10410 10412 10414 10417 10420 10422 10425 10428 10431 10434 10436 10439 10442 10444 10446 10448 10451 10454 10456 10458 10460 10462 10465 10467 10469 10471 10474 10477 10480 10483 10486 10489 10492 10495 10497 10499 10501 10503 10504 10506 10507 10509
10336 10335 10335 10334 10333 10332 10330 10329 10327 10326 10324 10322 10320 10318 10317 10317 10317 10317 10318 10319 10320 10321 10323 10325 10326 10329 10332 10335 10338 10343 10348 10353 10357 10361 10364 10366 10370 10375 10379 10381 10383 10386 10390 10394 10398 10401 10404 10406 10409 10412 10415 10417 10420 10423 10426 10428 10431 10433 10437 10439 10442 10444 10446 10449 10451 10453 10455 10458 10460 10462 10464 10466 10469 10472 10475 10478 10481 10484 10487 10489 10492 10495 10498 10499 10500 10501 10502 10503